When you browse on this site, cookies collect data to enhance your experience and personalize the content and advertising you see.
Visit our Privacy Policy to learn more. By continuing to use the site, you agree to this use of cookies and data.
  • In Österreich
  • Länderverzeichnis
  • Für 7 Tage
  • Wassertemperatur
  • Satellitenkarten
  • Wetterkarte
  • News
  • Widgets
  • user-avatar
    Anmelden

    Stündliche Wetter Klagenfurt

    Heute, 20 Juli, Samstag

    Zeit Temperatur Niederschläge Wind Luftdruck Luftfeuchtigkeit
    00:00 +15°C° 0 mm 1 m/S 691 mmHg 90%
    01:00 +15°C° 0 mm 1 m/S 691 mmHg 90%
    02:00 +14°C° 0 mm 1 m/S 691 mmHg 90%
    03:00 +14°C° 0 mm 1 m/S 691 mmHg 91%
    04:00 +14°C° 0 mm 1 m/S 691 mmHg 91%
    05:00 +15°C° 0 mm 1 m/S 691 mmHg 87%
    06:00 +16°C° 0 mm 0 m/S 692 mmHg 84%
    07:00 +17°C° 0 mm 0 m/S 692 mmHg 80%
    08:00 +22°C° 0 mm 1 m/S 692 mmHg 71%
    09:00 +24°C° 0 mm 1 m/S 693 mmHg 62%
    10:00 +26°C° 0 mm 1 m/S 693 mmHg 53%
    11:00 +27°C° 0 mm 1 m/S 693 mmHg 52%
    12:00 +28°C° 0 mm 1 m/S 693 mmHg 50%
    13:00 +28°C° 0 mm 2 m/S 693 mmHg 48%
    14:00 +28°C° 0 mm 2 m/S 693 mmHg 50%
    15:00 +27°C° 0 mm 2 m/S 693 mmHg 52%
    16:00 +27°C° 0 mm 2 m/S 693 mmHg 53%
    17:00 +25°C° 0 mm 2 m/S 693 mmHg 63%
    18:00 +23°C° 0 mm 2 m/S 693 mmHg 73%
    19:00 +22°C° 0 mm 1 m/S 693 mmHg 82%
    20:00 +21°C° 0 mm 1 m/S 693 mmHg 85%
    21:00 +20°C° 0 mm 1 m/S 693 mmHg 87%
    22:00 +18°C° 0 mm 1 m/S 693 mmHg 90%
    23:00 +18°C° 0 mm 1 m/S 693 mmHg 90%

    Morgen, 21 Juli, Sonntag

    Zeit Temperatur Niederschläge Wind Luftdruck Luftfeuchtigkeit
    00:00 +18°C° 0 mm 1 m/S 693 mmHg 90%
    01:00 +16°C° 0 mm 1 m/S 693 mmHg 91%
    02:00 +16°C° 0 mm 1 m/S 693 mmHg 91%
    03:00 +16°C° 0 mm 1 m/S 693 mmHg 91%
    04:00 +16°C° 0 mm 1 m/S 693 mmHg 90%
    05:00 +18°C° 0 mm 1 m/S 693 mmHg 86%
    06:00 +20°C° 0 mm 1 m/S 693 mmHg 82%
    07:00 +19°C° 0 mm 0 m/S 694 mmHg 78%
    08:00 +21°C° 0 mm 0 m/S 694 mmHg 71%
    09:00 +26°C° 0 mm 1 m/S 695 mmHg 64%
    10:00 +28°C° 0 mm 1 m/S 695 mmHg 56%
    11:00 +28°C° 0.5 mm 1 m/S 695 mmHg 58%
    12:00 +28°C° 0.5 mm 1 m/S 696 mmHg 60%
    13:00 +28°C° 0.5 mm 1 m/S 696 mmHg 62%
    14:00 +28°C° 0.7 mm 1 m/S 696 mmHg 65%
    15:00 +27°C° 0.7 mm 1 m/S 696 mmHg 68%
    16:00 +26°C° 0.7 mm 1 m/S 696 mmHg 71%
    17:00 +25°C° 0.5 mm 1 m/S 695 mmHg 78%
    18:00 +23°C° 0.5 mm 1 m/S 695 mmHg 85%
    19:00 +19°C° 0.5 mm 0 m/S 695 mmHg 93%
    20:00 +18°C° 0.5 mm 0 m/S 695 mmHg 93%
    21:00 +17°C° 0.5 mm 0 m/S 696 mmHg 93%
    22:00 +16°C° 0.5 mm 0 m/S 696 mmHg 94%
    23:00 +16°C° 0 mm 0 m/S 696 mmHg 94%

    übermorgen, 22 Juli, Montag

    Zeit Temperatur Niederschläge Wind Luftdruck Luftfeuchtigkeit
    00:00 +16°C° 0 mm 0 m/S 696 mmHg 94%
    01:00 +15°C° 0 mm 0 m/S 696 mmHg 95%
    02:00 +15°C° 0 mm 0 m/S 695 mmHg 95%
    03:00 +16°C° 0 mm 1 m/S 695 mmHg 95%
    04:00 +16°C° 0 mm 1 m/S 695 mmHg 96%
    05:00 +18°C° 0 mm 1 m/S 696 mmHg 95%
    06:00 +19°C° 0 mm 1 m/S 696 mmHg 94%
    07:00 +17°C° 0 mm 0 m/S 696 mmHg 93%
    08:00 +21°C° 0.1 mm 1 m/S 697 mmHg 84%
    09:00 +23°C° 0.1 mm 1 m/S 697 mmHg 76%
    10:00 +25°C° 0.1 mm 1 m/S 698 mmHg 67%
    11:00 +26°C° 0.1 mm 1 m/S 697 mmHg 64%
    12:00 +27°C° 0.1 mm 1 m/S 697 mmHg 60%
    13:00 +28°C° 0.1 mm 1 m/S 697 mmHg 57%
    14:00 +28°C° 0.1 mm 1 m/S 697 mmHg 57%
    15:00 +28°C° 0.1 mm 1 m/S 697 mmHg 58%
    16:00 +28°C° 0.1 mm 1 m/S 696 mmHg 58%
    17:00 +26°C° 0.2 mm 1 m/S 696 mmHg 68%
    18:00 +24°C° 0.2 mm 1 m/S 696 mmHg 77%
    19:00 +20°C° 0.2 mm 0 m/S 696 mmHg 87%
    20:00 +21°C° 0.1 mm 1 m/S 696 mmHg 88%
    21:00 +20°C° 0.1 mm 1 m/S 696 mmHg 89%
    22:00 +19°C° 0.1 mm 1 m/S 696 mmHg 91%
    23:00 +17°C° 0 mm 0 m/S 696 mmHg 91%

    23 Juli, Dienstag

    Zeit Temperatur Niederschläge Wind Luftdruck Luftfeuchtigkeit
    00:00 +17°C° 0 mm 0 m/S 696 mmHg 92%
    01:00 +16°C° 0 mm 0 m/S 695 mmHg 93%
    02:00 +16°C° 0 mm 0 m/S 695 mmHg 94%
    03:00 +16°C° 0 mm 0 m/S 695 mmHg 94%
    04:00 +15°C° 0 mm 0 m/S 695 mmHg 95%
    05:00 +16°C° 0 mm 0 m/S 695 mmHg 93%
    06:00 +19°C° 0 mm 1 m/S 695 mmHg 91%
    07:00 +20°C° 0 mm 1 m/S 695 mmHg 89%
    08:00 +22°C° 0 mm 1 m/S 696 mmHg 82%
    09:00 +24°C° 0 mm 1 m/S 696 mmHg 76%
    10:00 +25°C° 0 mm 1 m/S 696 mmHg 69%
    11:00 +26°C° 0 mm 1 m/S 696 mmHg 62%
    12:00 +27°C° 0 mm 1 m/S 696 mmHg 55%
    13:00 +29°C° 0 mm 1 m/S 696 mmHg 49%
    14:00 +29°C° 0 mm 1 m/S 696 mmHg 49%
    15:00 +28°C° 0 mm 1 m/S 695 mmHg 49%
    16:00 +28°C° 0 mm 1 m/S 695 mmHg 50%
    17:00 +27°C° 0 mm 1 m/S 695 mmHg 60%
    18:00 +25°C° 0 mm 1 m/S 695 mmHg 70%
    19:00 +23°C° 0 mm 1 m/S 694 mmHg 80%
    20:00 +22°C° 0 mm 1 m/S 694 mmHg 81%
    21:00 +21°C° 0 mm 1 m/S 694 mmHg 83%
    22:00 +19°C° 0 mm 1 m/S 694 mmHg 85%
    23:00 +19°C° 0 mm 1 m/S 694 mmHg 86%

    24 Juli, Mittwoch

    Zeit Temperatur Niederschläge Wind Luftdruck Luftfeuchtigkeit
    00:00 +16°C° 0 mm 0 m/S 694 mmHg 87%
    01:00 +16°C° 0 mm 0 m/S 694 mmHg 89%
    02:00 +16°C° 0 mm 0 m/S 694 mmHg 90%
    03:00 +15°C° 0 mm 0 m/S 694 mmHg 91%
    04:00 +15°C° 0 mm 0 m/S 693 mmHg 92%
    05:00 +17°C° 0 mm 0 m/S 694 mmHg 88%
    06:00 +18°C° 0 mm 0 m/S 694 mmHg 83%
    07:00 +20°C° 0 mm 0 m/S 694 mmHg 78%
    08:00 +21°C° 0 mm 0 m/S 695 mmHg 72%
    09:00 +25°C° 0 mm 1 m/S 695 mmHg 65%
    10:00 +27°C° 0 mm 1 m/S 695 mmHg 58%
    11:00 +28°C° 0 mm 1 m/S 695 mmHg 55%
    12:00 +29°C° 0 mm 1 m/S 695 mmHg 53%
    13:00 +30°C° 0 mm 1 m/S 695 mmHg 50%
    14:00 +30°C° 0 mm 1 m/S 695 mmHg 51%
    15:00 +29°C° 0 mm 1 m/S 695 mmHg 51%
    16:00 +29°C° 0 mm 1 m/S 694 mmHg 51%
    17:00 +28°C° 0 mm 1 m/S 694 mmHg 60%
    18:00 +26°C° 0 mm 1 m/S 694 mmHg 69%
    19:00 +24°C° 0 mm 1 m/S 694 mmHg 78%
    20:00 +23°C° 0.1 mm 1 m/S 694 mmHg 79%
    21:00 +22°C° 0.1 mm 1 m/S 694 mmHg 81%
    22:00 +21°C° 0.1 mm 1 m/S 694 mmHg 83%
    23:00 +20°C° 0.1 mm 1 m/S 694 mmHg 83%

    25 Juli, Donnerstag

    Zeit Temperatur Niederschläge Wind Luftdruck Luftfeuchtigkeit
    00:00 +20°C° 0.1 mm 1 m/S 694 mmHg 84%
    01:00 +17°C° 0.1 mm 0 m/S 694 mmHg 84%
    02:00 +17°C° 0 mm 0 m/S 693 mmHg 86%
    03:00 +17°C° 0 mm 0 m/S 693 mmHg 87%
    04:00 +16°C° 0 mm 0 m/S 693 mmHg 88%
    05:00 +18°C° 0 mm 0 m/S 693 mmHg 84%
    06:00 +19°C° 0 mm 0 m/S 694 mmHg 80%
    07:00 +21°C° 0 mm 0 m/S 694 mmHg 76%
    08:00 +24°C° 0 mm 1 m/S 694 mmHg 69%
    09:00 +26°C° 0 mm 1 m/S 695 mmHg 62%
    10:00 +28°C° 0 mm 1 m/S 695 mmHg 55%
    11:00 +29°C° 0 mm 1 m/S 695 mmHg 52%
    12:00 +30°C° 0 mm 1 m/S 695 mmHg 50%
    13:00 +30°C° 0 mm 1 m/S 695 mmHg 47%
    14:00 +30°C° 0 mm 1 m/S 695 mmHg 48%
    15:00 +30°C° 0 mm 1 m/S 694 mmHg 49%
    16:00 +29°C° 0 mm 1 m/S 694 mmHg 49%
    17:00 +28°C° 0 mm 1 m/S 694 mmHg 57%
    18:00 +26°C° 0 mm 1 m/S 694 mmHg 65%
    19:00 +24°C° 0 mm 1 m/S 693 mmHg 73%
    20:00 +23°C° 0.1 mm 1 m/S 693 mmHg 73%
    21:00 +22°C° 0.1 mm 1 m/S 693 mmHg 73%
    22:00 +21°C° 0.1 mm 1 m/S 693 mmHg 73%
    23:00 +20°C° 0 mm 1 m/S 693 mmHg 74%
    Mehr zeigen